Weather History for Columbia Airport, CA

Change the Weather History Date:

Friday, April 11, 2014

  Actual Average (KMOD) Record (KMOD)
Temperature  
Mean Temperature 62 °F -  
Max Temperature 75 °F 73 °F 93 °F (1988)
Min Temperature 48 °F 48 °F 34 °F (1965)
Degree Days  
Heating Degree Days 4 5  
Month to date heating degree days 62  
Since 1 July heating degree days 2067  
Cooling Degree Days 0 1  
Month to date cooling degree days 7  
Year to date cooling degree days 12  
Growing Degree Days 12 (Base 50)    
Moisture  
Dew Point 46 °F    
Average Humidity 62    
Maximum Humidity 87    
Minimum Humidity 29    
Precipitation  
Precipitation 0.00 in 0.04 in 0.88 in (2012)
Month to date precipitation 0.42  
Year to date precipitation 7.45  
Since 1 July precipitation 11.81  
Snow  
Snow 0.00 in - - ()
Month to date snowfall  
Since 1 July snowfall  
Snow Depth -    
Sea Level Pressure  
Sea Level Pressure 29.90 in    
Wind  
Wind Speed 2 mph (WNW)    
Max Wind Speed 6 mph    
Max Gust Speed -    
Visibility 10 miles    
Events      
T = Trace of Precipitation, MM = Missing Value Source: NWS Daily Summary

Daily Weather History Graph

Daily Weather History Graph

Search for Another Location

Airport:

Trip Planner

Search our weather history database for the weather conditions in past years. The results will help you decide how hot, cold, wet, or windy it might be!

Date:

Astronomy

Apr. 11, 2014 Rise Set
Actual Time 6:31 AM PDT 7:34 PM PDT
Civil Twilight 6:04 AM PDT 8:01 PM PDT
Nautical Twilight 5:32 AM PDT 8:33 PM PDT
Astronomical Twilight 4:59 AM PDT 9:06 PM PDT
Moon 4:22 PM PDT (4/11) 4:26 AM PDT (4/11)
Length of Visible Light 13h 56m
Length of Day
13h 02m
Waxing Gibbous, 87% of the Moon is Illuminated
Apr 11
Waxing Gibbous
Apr 15
Full
Apr 22
Last Quarter
Apr 28
New
May 6
First Quarter

Hourly Weather History & Observations

Time (PDT) Temp. Dew Point Humidity Pressure Visibility Wind Dir Wind Speed Gust Speed Precip Events Conditions
12:15 AM 51.8 °F 46.4 °F 82% 29.97 in 10.0 mi Calm Calm - N/A   Clear
12:35 AM 50.0 °F 44.6 °F 82% 29.97 in 10.0 mi Calm Calm - N/A   Clear
12:55 AM 50.0 °F 44.6 °F 82% 29.97 in 10.0 mi Calm Calm - N/A   Clear
1:15 AM 50.0 °F 46.4 °F 87% 29.97 in 10.0 mi Calm Calm - N/A   Partly Cloudy
1:35 AM 50.0 °F 44.6 °F 82% 29.96 in 10.0 mi Calm Calm - N/A   Partly Cloudy
1:55 AM 50.0 °F 46.4 °F 87% 29.95 in 10.0 mi NNE 3.5 mph - N/A   Partly Cloudy
2:15 AM 50.0 °F 46.4 °F 87% 29.95 in 10.0 mi Calm Calm - N/A   Partly Cloudy
2:35 AM 50.0 °F 46.4 °F 87% 29.94 in 10.0 mi NE 3.5 mph - N/A   Partly Cloudy
2:55 AM 50.0 °F 46.4 °F 87% 29.94 in 10.0 mi Calm Calm - N/A   Scattered Clouds
3:15 AM 50.0 °F 46.4 °F 87% 29.94 in 10.0 mi NE 3.5 mph - N/A   Partly Cloudy
3:35 AM 53.6 °F 44.6 °F 72% 29.93 in 10.0 mi North 3.5 mph - N/A   Partly Cloudy
3:55 AM 50.0 °F 44.6 °F 82% 29.93 in 10.0 mi NNE 3.5 mph - N/A   Partly Cloudy
4:15 AM 50.0 °F 44.6 °F 82% 29.92 in 10.0 mi Calm Calm - N/A   Clear
4:35 AM 50.0 °F 44.6 °F 82% 29.92 in 10.0 mi NE 3.5 mph - N/A   Clear
4:55 AM 50.0 °F 44.6 °F 82% 29.92 in 10.0 mi Calm Calm - N/A   Clear
5:15 AM 48.2 °F 44.6 °F 87% 29.92 in 10.0 mi NE 3.5 mph - N/A   Clear
5:35 AM 48.2 °F 44.6 °F 87% 29.92 in 10.0 mi Calm Calm - N/A   Clear
5:55 AM 50.0 °F 44.6 °F 82% 29.92 in 10.0 mi Calm Calm - N/A   Clear
6:15 AM 48.2 °F 44.6 °F 87% 29.91 in 10.0 mi NNE 3.5 mph - N/A   Clear
6:35 AM 48.2 °F 44.6 °F 87% 29.92 in 10.0 mi Calm Calm - N/A   Clear
6:55 AM 50.0 °F 44.6 °F 82% 29.92 in 10.0 mi NE 3.5 mph - N/A   Clear
7:15 AM 50.0 °F 46.4 °F 87% 29.92 in 10.0 mi Calm Calm - N/A   Clear
7:35 AM 53.6 °F 46.4 °F 77% 29.92 in 10.0 mi Calm Calm - N/A   Clear
7:55 AM 57.2 °F 48.2 °F 72% 29.92 in 10.0 mi Calm Calm - N/A   Clear
8:15 AM 62.6 °F 46.4 °F 55% 29.92 in 10.0 mi Calm Calm - N/A   Clear
8:35 AM 66.2 °F 46.4 °F 49% 29.92 in 10.0 mi Calm Calm - N/A   Clear
8:55 AM 68.0 °F 48.2 °F 49% 29.92 in 10.0 mi Calm Calm - N/A   Clear
9:15 AM 69.8 °F 46.4 °F 43% 29.93 in 10.0 mi Calm Calm - N/A   Clear
9:35 AM 71.6 °F 46.4 °F 41% 29.93 in 10.0 mi Calm Calm - N/A   Clear
9:55 AM 73.4 °F 44.6 °F 36% 29.93 in 10.0 mi SSE 3.5 mph - N/A   Clear
10:15 AM 73.4 °F 42.8 °F 33% 29.93 in 10.0 mi Calm Calm - N/A   Clear
10:35 AM 71.6 °F 44.6 °F 38% 29.93 in 10.0 mi Calm Calm - N/A   Clear
10:55 AM 73.4 °F 44.6 °F 36% 29.94 in 10.0 mi SSW 3.5 mph - N/A   Clear
11:35 AM 71.6 °F 51.8 °F 50% 29.94 in 10.0 mi South 3.5 mph - N/A   Clear
11:55 AM 73.4 °F 48.2 °F 41% 29.93 in 10.0 mi South 3.5 mph - N/A   Clear
12:15 PM 73.4 °F 44.6 °F 36% 29.92 in 10.0 mi SSW 5.8 mph - N/A   Clear
12:35 PM 73.4 °F 48.2 °F 41% 29.92 in 10.0 mi SW 3.5 mph - N/A   Clear
12:55 PM 73.4 °F 44.6 °F 36% 29.92 in 10.0 mi SSW 3.5 mph - N/A   Clear
1:15 PM 75.2 °F 42.8 °F 31% 29.91 in 10.0 mi WSW 4.6 mph - N/A   Clear
1:35 PM 73.4 °F 41.0 °F 31% 29.91 in 10.0 mi WSW 3.5 mph - N/A   Clear
1:55 PM 75.2 °F 41.0 °F 29% 29.90 in 10.0 mi WSW 5.8 mph - N/A   Clear
2:15 PM 73.4 °F 46.4 °F 38% 29.90 in 10.0 mi West 4.6 mph - N/A   Clear
2:35 PM 73.4 °F 46.4 °F 38% 29.89 in 10.0 mi WNW 4.6 mph - N/A   Clear
2:55 PM 75.2 °F 48.2 °F 38% 29.88 in 10.0 mi West 4.6 mph - N/A   Clear
3:15 PM 75.2 °F 48.2 °F 38% 29.88 in 10.0 mi WNW 5.8 mph - N/A   Clear
3:35 PM 75.2 °F 50.0 °F 41% 29.87 in 10.0 mi West 3.5 mph - N/A   Clear
3:55 PM 73.4 °F 50.0 °F 44% 29.87 in 10.0 mi Calm Calm - N/A   Clear
4:15 PM 75.2 °F 50.0 °F 41% 29.87 in 10.0 mi West 5.8 mph - N/A   Clear
4:35 PM 75.2 °F 48.2 °F 38% 29.86 in 10.0 mi West 5.8 mph - N/A   Clear
4:55 PM 73.4 °F 41.0 °F 31% 29.86 in 10.0 mi WNW 5.8 mph - N/A   Clear
5:15 PM 73.4 °F 46.4 °F 38% 29.86 in 10.0 mi West 5.8 mph - N/A   Clear
5:35 PM 71.6 °F 46.4 °F 41% 29.85 in 10.0 mi West 4.6 mph - N/A   Clear
5:55 PM 69.8 °F 48.2 °F 46% 29.85 in 10.0 mi WNW 4.6 mph - N/A   Clear
6:15 PM 68.0 °F 48.2 °F 49% 29.85 in 10.0 mi Calm Calm - N/A   Clear
6:35 PM 66.2 °F 48.2 °F 52% 29.85 in 10.0 mi Calm Calm - N/A   Clear
6:55 PM 64.4 °F 46.4 °F 52% 29.85 in 10.0 mi Calm Calm - N/A   Clear
7:15 PM 62.6 °F 48.2 °F 59% 29.84 in 10.0 mi Calm Calm - N/A   Clear
7:35 PM 59.0 °F 48.2 °F 67% 29.85 in 10.0 mi Calm Calm - N/A   Clear
7:55 PM 59.0 °F 48.2 °F 67% 29.84 in 10.0 mi NE 3.5 mph - N/A   Clear
8:15 PM 57.2 °F 48.2 °F 72% 29.85 in 10.0 mi Calm Calm - N/A   Clear
8:35 PM 57.2 °F 48.2 °F 72% 29.85 in 10.0 mi Calm Calm - N/A   Clear
8:55 PM 55.4 °F 48.2 °F 77% 29.86 in 10.0 mi Calm Calm - N/A   Clear
9:15 PM 57.2 °F 48.2 °F 72% 29.86 in 10.0 mi Calm Calm - N/A   Clear
9:35 PM 55.4 °F 48.2 °F 77% 29.86 in 10.0 mi Calm Calm - N/A   Clear
9:55 PM 55.4 °F 48.2 °F 77% 29.86 in 10.0 mi Calm Calm - N/A   Clear
10:15 PM 55.4 °F 48.2 °F 77% 29.86 in 10.0 mi Calm Calm - N/A   Clear
10:35 PM 55.4 °F 48.2 °F 77% 29.86 in 10.0 mi Calm Calm - N/A   Clear
10:55 PM 53.6 °F 48.2 °F 82% 29.86 in 10.0 mi Calm Calm - N/A   Scattered Clouds
11:15 PM 53.6 °F 48.2 °F 82% 29.86 in 10.0 mi NE 4.6 mph - N/A   Mostly Cloudy
11:35 PM 53.6 °F 46.4 °F 77% 29.86 in 10.0 mi NE 3.5 mph - N/A   Scattered Clouds
11:55 PM 51.8 °F 46.4 °F 82% 29.86 in 10.0 mi Calm Calm - N/A   Clear